Time,TemperatureF,DewpointF,PressureIn,WindDirection,WindDirectionDegrees,WindSpeedMPH,WindSpeedGustMPH,Humidity,HourlyPrecipIn,Conditions,Clouds,dailyrainin,SoftwareType,DateUTC
2013-05-16 00:29:00,64.3,44.7,29.78,WSW,257,2.0,2.0,49,0.00,,,0.00,Wunderground v.1.15,2013-05-16 05:29:00,
2013-05-16 00:59:00,63.9,44.9,29.79,WSW,257,0.0,0.0,50,0.00,,,0.00,Wunderground v.1.15,2013-05-16 05:59:00,
2013-05-16 01:29:00,63.4,45.5,29.80,WSW,257,0.0,0.0,52,0.00,,,0.00,Wunderground v.1.15,2013-05-16 06:29:00,
2013-05-16 01:59:00,61.2,45.8,29.79,WSW,257,0.0,0.0,57,0.00,,,0.00,Wunderground v.1.15,2013-05-16 06:59:00,
2013-05-16 02:29:00,59.8,45.9,29.79,WSW,257,0.0,0.0,60,0.00,,,0.00,Wunderground v.1.15,2013-05-16 07:29:00,
2013-05-16 02:59:00,58.6,45.6,29.79,WSW,257,0.0,0.0,62,0.00,,,0.00,Wunderground v.1.15,2013-05-16 07:59:00,
2013-05-16 03:29:00,58.3,45.8,29.80,WSW,257,0.0,0.0,63,0.00,,,0.00,Wunderground v.1.15,2013-05-16 08:29:00,
2013-05-16 03:59:00,57.3,46.0,29.81,WSW,257,0.0,2.0,66,0.00,,,0.00,Wunderground v.1.15,2013-05-16 08:59:00,
2013-05-16 04:30:00,56.9,46.8,29.81,WSW,257,0.0,1.0,69,0.00,,,0.00,Wunderground v.1.15,2013-05-16 09:30:00,
2013-05-16 05:00:00,58.0,45.5,29.81,WSW,257,0.0,0.0,63,0.00,,,0.00,Wunderground v.1.15,2013-05-16 10:00:00,
2013-05-16 05:30:00,56.6,46.5,29.82,WSW,257,0.0,0.0,69,0.00,,,0.00,Wunderground v.1.15,2013-05-16 10:30:00,
2013-05-16 06:00:00,54.2,45.7,29.83,WSW,257,0.0,0.0,73,0.00,,,0.00,Wunderground v.1.15,2013-05-16 11:00:00,
2013-05-16 06:30:00,53.9,46.5,29.83,WSW,257,0.0,0.0,76,0.00,,,0.00,Wunderground v.1.15,2013-05-16 11:30:00,
2013-05-16 07:00:00,55.4,46.9,29.85,WSW,257,0.0,0.0,73,0.00,,,0.00,Wunderground v.1.15,2013-05-16 12:00:00,
2013-05-16 07:29:00,57.6,47.1,29.85,East,90,1.0,1.0,68,0.00,,,0.00,Wunderground v.1.15,2013-05-16 12:29:00,
2013-05-16 08:00:00,59.9,46.8,29.86,East,89,0.0,0.0,62,0.00,,,0.00,Wunderground v.1.15,2013-05-16 13:00:00,
2013-05-16 08:30:00,63.4,46.9,29.86,East,89,0.0,2.0,55,0.00,,,0.00,Wunderground v.1.15,2013-05-16 13:30:00,
2013-05-16 09:00:00,67.3,46.9,29.85,ESE,108,3.0,4.0,48,0.00,,,0.00,Wunderground v.1.15,2013-05-16 14:00:00,
2013-05-16 09:29:00,70.1,45.3,29.85,East,84,7.0,7.0,41,0.00,,,0.00,Wunderground v.1.15,2013-05-16 14:29:00,
2013-05-16 10:00:00,72.3,39.1,29.85,SE,125,8.0,9.0,30,0.00,,,0.00,Wunderground v.1.15,2013-05-16 15:00:00,
2013-05-16 10:30:00,74.0,39.7,29.86,East,101,7.0,9.0,29,0.00,,,0.00,Wunderground v.1.15,2013-05-16 15:30:00,
2013-05-16 10:59:00,75.1,37.9,29.86,NE,39,7.0,7.0,26,0.00,,,0.00,Wunderground v.1.15,2013-05-16 15:59:00,
2013-05-16 11:30:00,75.6,40.2,29.86,ENE,64,8.0,8.0,28,0.00,,,0.00,Wunderground v.1.15,2013-05-16 16:30:00,
2013-05-16 12:00:00,76.3,38.9,29.86,North,355,6.0,6.0,26,0.00,,,0.00,Wunderground v.1.15,2013-05-16 17:00:00,
2013-05-16 12:29:00,76.7,38.2,29.85,NNE,18,6.0,6.0,25,0.00,,,0.00,Wunderground v.1.15,2013-05-16 17:29:00,
2013-05-16 13:00:00,77.4,37.8,29.85,NNW,338,6.0,9.0,24,0.00,,,0.00,Wunderground v.1.15,2013-05-16 18:00:00,
2013-05-16 13:30:00,78.3,37.4,29.84,ENE,59,5.0,6.0,23,0.00,,,0.00,Wunderground v.1.15,2013-05-16 18:30:00,
2013-05-16 14:00:00,79.4,36.0,29.83,ENE,58,3.0,4.0,21,0.00,,,0.00,Wunderground v.1.15,2013-05-16 19:00:00,
2013-05-16 14:30:00,78.1,36.1,29.83,NNW,327,6.0,6.0,22,0.00,,,0.00,Wunderground v.1.15,2013-05-16 19:30:00,
2013-05-16 15:00:00,78.8,36.7,29.82,ENE,65,8.0,8.0,22,0.00,,,0.00,Wunderground v.1.15,2013-05-16 20:00:00,
2013-05-16 15:30:00,80.3,36.8,29.82,East,85,2.0,2.0,21,0.00,,,0.00,Wunderground v.1.15,2013-05-16 20:30:00,
2013-05-16 16:00:00,80.3,36.8,29.81,SE,128,5.0,5.0,21,0.00,,,0.00,Wunderground v.1.15,2013-05-16 21:00:00,
2013-05-16 16:30:00,80.3,36.8,29.81,NE,53,4.0,11.0,21,0.00,,,0.00,Wunderground v.1.15,2013-05-16 21:30:00,
2013-05-16 17:00:00,79.9,36.5,29.82,NNW,336,6.0,6.0,21,0.00,,,0.00,Wunderground v.1.15,2013-05-16 22:00:00,
2013-05-16 17:30:00,79.9,35.2,29.82,North,355,6.0,6.0,20,0.00,,,0.00,Wunderground v.1.15,2013-05-16 22:30:00,
2013-05-16 18:00:00,80.1,36.6,29.81,NE,38,5.0,5.0,21,0.00,,,0.00,Wunderground v.1.15,2013-05-16 23:00:00,
2013-05-16 18:30:00,79.6,36.2,29.81,NE,53,6.0,6.0,21,0.00,,,0.00,Wunderground v.1.15,2013-05-16 23:30:00,
2013-05-16 19:00:00,79.2,35.9,29.82,NE,45,6.0,6.0,21,0.00,,,0.00,Wunderground v.1.15,2013-05-17 00:00:00,
2013-05-16 19:30:00,78.6,35.4,29.82,NE,56,5.0,6.0,21,0.00,,,0.00,Wunderground v.1.15,2013-05-17 00:30:00,
2013-05-16 20:00:00,77.6,35.7,29.83,ENE,59,5.0,5.0,22,0.00,,,0.00,Wunderground v.1.15,2013-05-17 01:00:00,
2013-05-16 20:30:00,76.1,33.3,29.85,NE,45,7.0,13.0,21,0.00,,,0.00,Wunderground v.1.15,2013-05-17 01:30:00,
2013-05-16 21:00:00,73.5,28.7,29.86,NE,38,10.0,11.0,19,0.00,,,0.00,Wunderground v.1.15,2013-05-17 02:00:00,
2013-05-16 21:30:00,72.0,29.9,29.87,ENE,65,10.0,14.0,21,0.00,,,0.00,Wunderground v.1.15,2013-05-17 02:30:00,
2013-05-16 22:00:00,70.8,30.0,29.88,ENE,69,10.0,10.0,22,0.00,,,0.00,Wunderground v.1.15,2013-05-17 03:00:00,
2013-05-16 22:29:00,70.6,29.9,29.88,ENE,71,11.0,11.0,22,0.00,,,0.00,Wunderground v.1.15,2013-05-17 03:29:00,
2013-05-16 22:59:00,69.9,31.4,29.88,East,84,11.0,13.0,24,0.00,,,0.00,Wunderground v.1.15,2013-05-17 03:59:00,
2013-05-16 23:29:00,68.8,32.5,29.88,East,89,9.0,10.0,26,0.00,,,0.00,Wunderground v.1.15,2013-05-17 04:29:00,